Weather History for McCall, ID

Change the Weather History Date:

Saturday, November 3, 2012

  Actual Average Record
Temperature  
Mean Temperature 39 °F 34 °F  
Max Temperature 48 °F 45 °F 64 °F (1962)
Min Temperature 29 °F 23 °F 2 °F (1936)
Degree Days  
Heating Degree Days 26 31  
Month to date heating degree days 76 92  
Since 1 July heating degree days 1165 1635  
Cooling Degree Days 0 0  
Month to date cooling degree days 0 0  
Year to date cooling degree days 172 25  
Moisture  
Dew Point 33 °F    
Average Humidity 81    
Maximum Humidity 100    
Minimum Humidity 61    
Precipitation  
Precipitation T in 0.11 in 0.65 in (1948)
Month to date precipitation 0.12 0.30  
Year to date precipitation 21.65 15.62  
Sea Level Pressure  
Sea Level Pressure 30.23 in    
Wind  
Wind Speed 1 mph (NE)    
Max Wind Speed 7 mph    
Max Gust Speed 9 mph    
Visibility 10 miles    
Events Rain    
T = Trace of Precipitation, MM = Missing Value Source: NWS Daily Summary

Daily Weather History Graph

Daily Weather History Graph

Search for Another Location

Airport:

Trip Planner

Search our weather history database for the weather conditions in past years. The results will help you decide how hot, cold, wet, or windy it might be!

Date:

Astronomy

Nov. 03, 2012 Rise Set
Actual Time 8:26 AM MDT 6:29 PM MDT
Civil Twilight 7:55 AM MDT 6:59 PM MDT
Nautical Twilight 7:20 AM MDT 7:34 PM MDT
Astronomical Twilight 6:46 AM MDT 8:08 PM MDT
Moon 10:10 PM MDT (11/3) 12:37 PM MDT (11/3)
Length of Visible Light 11h 04m
Length of Day
10h 02m
Waning Gibbous, 80% of the Moon is Illuminated
Nov 3
Waning Gibbous
Nov 6
Last Quarter
Nov 13
New
Nov 20
First Quarter
Nov 28
Full

Hourly Weather History & Observations

Time (MDT) Temp. Windchill Dew Point Humidity Pressure Visibility Wind Dir Wind Speed Gust Speed Precip Events Conditions
12:51 AM 30.9 °F - 28.9 °F 92% 30.19 in 10.0 mi Calm Calm - N/A   Clear
1:51 AM 30.0 °F - 28.0 °F 92% 30.19 in 10.0 mi Calm Calm - N/A   Clear
2:51 AM 28.9 °F - 28.0 °F 96% 30.18 in 7.0 mi Calm Calm - N/A   Scattered Clouds
3:51 AM 30.0 °F - 28.0 °F 92% 30.17 in 8.0 mi Calm Calm - N/A   Overcast
4:24 AM 30.2 °F - 28.4 °F 93% 30.14 in 10.0 mi Calm Calm - N/A   Overcast
4:51 AM 30.9 °F - 28.0 °F 89% 30.17 in 10.0 mi Calm Calm - N/A   Overcast
5:51 AM 30.9 °F - 28.9 °F 92% 30.17 in 10.0 mi Calm Calm - N/A   Overcast
6:51 AM 30.9 °F - 28.9 °F 92% 30.19 in 10.0 mi Calm Calm - N/A   Overcast
7:51 AM 33.1 °F - 30.9 °F 92% 30.22 in 10.0 mi Calm Calm - N/A   Overcast
8:51 AM 32.0 °F - 30.9 °F 96% 30.25 in 10.0 mi Calm Calm - N/A   Overcast
9:51 AM 34.0 °F - 32.0 °F 92% 30.26 in 10.0 mi Calm Calm - N/A   Overcast
10:51 AM 37.0 °F - 35.1 °F 93% 30.27 in 10.0 mi Calm Calm - N/A   Overcast
11:51 AM 39.0 °F - 35.1 °F 86% 30.26 in 10.0 mi Calm Calm - N/A   Overcast
12:51 PM 41.0 °F - 35.1 °F 79% 30.26 in 10.0 mi Calm Calm - N/A   Overcast
1:51 PM 43.0 °F - 36.0 °F 76% 30.24 in 10.0 mi Calm Calm - N/A   Overcast
2:51 PM 46.0 °F 44.8 °F 36.0 °F 68% 30.24 in 10.0 mi Variable 3.5 mph - 0.00 in Rain Light Rain
3:51 PM 46.9 °F - 36.0 °F 66% 30.23 in 10.0 mi Calm Calm - 0.00 in   Overcast
4:51 PM 48.0 °F - 36.0 °F 63% 30.22 in 10.0 mi Calm Calm - N/A   Overcast
5:51 PM 46.9 °F - 37.0 °F 68% 30.23 in 10.0 mi NNE 4.6 mph - N/A   Overcast
6:51 PM 46.0 °F - 37.0 °F 71% 30.24 in 10.0 mi Calm Calm - N/A   Overcast
7:51 PM 43.0 °F - 37.9 °F 82% 30.27 in 10.0 mi Calm Calm - N/A   Overcast
8:51 PM 39.9 °F 37.8 °F 36.0 °F 86% 30.29 in 10.0 mi NE 3.5 mph - N/A   Scattered Clouds
9:51 PM 37.9 °F - 36.0 °F 93% 30.29 in 10.0 mi Calm Calm - N/A   Clear
10:51 PM 37.9 °F - 35.1 °F 89% 30.27 in 10.0 mi Calm Calm - N/A   Clear
11:51 PM 37.9 °F - 35.1 °F 89% 30.28 in 10.0 mi Calm Calm - N/A   Scattered Clouds